Location: Alberta Star Party
(51.6612°N, 112.9089°W)
Time: 15:29:16
(UTC-06:00)

Amateur Radio Satellites - All Passes

Search period start: 31 October 2014 14:59
Search period end: 01 November 2014 14:59
Location: Alberta Star Party, 51.6612°N, 112.9089°W

Satellite Date Start Highest point End Downlink Frequencies (MHz)
Time Altitude Azimuth
ISS 31 Oct 15:02:13 15:05:34 83° 190° (S) 15:08:55 145.800 FM
TMSAT-1 31 Oct 15:03:18 15:08:30 60° 69° (ENE) 15:13:45 436.925 FM
JAS-2 31 Oct 15:03:41 15:05:37 11° 32° (NNE) 15:07:36 435.800 - 435.900 CW/SSB, 435.910 FM
SO-50 31 Oct 15:14:43 15:18:17 21° 343° (NNW) 15:21:56 436.795 FM
Uribyol 2 31 Oct 15:25:16 15:30:13 42° 262° (W) 15:35:12 436.500 FM
AO-Echo 31 Oct 15:26:44 15:31:20 35° 265° (W) 15:36:06 ?
ITAMSAT 1 31 Oct 15:33:24 15:38:15 38° 263° (W) 15:43:09 435.822 SSB
Uosat F 31 Oct 15:40:10 15:44:13 25° 58° (ENE) 15:48:17 435.120 FM
Oscar 19 31 Oct 15:47:07 15:49:58 15° 274° (W) 15:52:50 437.125 CW, 437.150 USB
AO-7 31 Oct 15:54:57 16:03:03 62° 61° (ENE) 16:11:12 29.400 - 29.500 MHz
UOSAT-12 31 Oct 15:56:19 16:00:36 34° 328° (NNW) 16:04:57 437.025 FM, 437.400 FM
AO-27 31 Oct 16:23:17 16:26:32 16° 273° (W) 16:29:48 436.795 MHz FM
JAS-1B 31 Oct 16:25:22 16:26:24 10° 280° (W) 16:27:26 435.800 - 435.900 CW/SSB
Saudisat 1A 31 Oct 16:26:00 16:28:21 14° 249° (WSW) 16:30:43 436.775 MHz
KITSAT 1 31 Oct 16:26:09 16:33:02 29° 360° (N) 16:39:54 435.175 FM
Gurwin Techsat 1B 31 Oct 16:38:37 16:42:40 22° 270° (W) 16:46:45 435.225 FM
ISS 31 Oct 16:39:01 16:42:03 32° 209° (SSW) 16:45:05 145.800 FM
JAS-2 31 Oct 16:42:35 16:48:28 35° 56° (NE) 16:54:57 435.800 - 435.900 CW/SSB, 435.910 FM
TMSAT-1 31 Oct 16:44:30 16:48:49 25° 269° (W) 16:53:10 436.925 FM
Hamsat 31 Oct 16:47:34 16:49:39 14° 56° (NE) 16:51:44 145.90 MHz
SO-50 31 Oct 16:57:13 17:00:28 18° 7° (N) 17:03:46 436.795 FM
Uosat F 31 Oct 17:17:41 17:22:39 61° 258° (WSW) 17:27:41 435.120 FM
UOSAT-12 31 Oct 17:38:50 17:42:05 18° 352° (N) 17:45:20 437.025 FM, 437.400 FM
OPAL 31 Oct 17:43:23 17:45:57 14° 89° (E) 17:48:30 ?
AO-7 31 Oct 17:48:38 17:56:16 40° 263° (W) 18:03:58 29.400 - 29.500 MHz
HO-68 31 Oct 18:16:01 18:17:58 11° 30° (NNE) 18:19:54 435.675 MHz FM
Hamsat 31 Oct 18:20:48 18:24:59 90° 66° (ENE) 18:29:12 145.90 MHz
KITSAT 1 31 Oct 18:23:08 18:30:43 41° 28° (NNE) 18:38:16 435.175 FM
JAS-2 31 Oct 18:26:36 18:33:03 65° 259° (W) 18:40:23 435.800 - 435.900 CW/SSB, 435.910 FM
SO-50 31 Oct 18:38:02 18:42:23 33° 31° (NNE) 18:46:47 436.795 FM
Oscar 10/S400 31 Oct 18:45:40 19:08:00 42° 180° (S) 22:54:37 145.825 - 145.975 CW/USB, Beacon 145.810 USB
SO-67 31 Oct 19:01:16 19:04:22 32° 69° (ENE) 19:07:30 435.3500 MHz FM
UOSAT-12 31 Oct 19:20:16 19:23:51 21° 17° (NNE) 19:27:25 437.025 FM, 437.400 FM
OPAL 31 Oct 19:20:36 19:25:36 86° 108° (ESE) 19:30:34 ?
STRAND 1 31 Oct 19:38:50 19:43:10 26° 93° (E) 19:47:27 ?
RS-15 31 Oct 19:56:27 20:01:39 15° 94° (E) 20:06:49 29.354 - 29.394 USB, Beacon 29.352 USB
HO-68 31 Oct 19:57:22 20:03:36 34° 54° (NE) 20:09:52 435.675 MHz FM
Hamsat 31 Oct 20:00:10 20:01:36 12° 274° (W) 20:03:01 145.90 MHz
JAS-2 31 Oct 20:16:17 20:19:46 14° 283° (WNW) 20:23:26 435.800 - 435.900 CW/SSB, 435.910 FM
SO-50 31 Oct 20:18:31 20:23:19 67° 232° (SW) 20:28:09 436.795 FM
KITSAT 1 31 Oct 20:18:49 20:26:56 83° 234° (SW) 20:35:01 435.175 FM
UKube-1 31 Oct 20:31:15 20:33:19 13° 53° (NE) 20:35:23 145.840 MHz, 145.915 MHz
SO-67 31 Oct 20:34:43 20:37:25 21° 267° (W) 20:40:09 435.3500 MHz FM
UOSAT-12 31 Oct 21:00:22 21:05:01 51° 40° (NE) 21:09:36 437.025 FM, 437.400 FM
OPAL 31 Oct 21:00:29 21:03:55 19° 308° (NW) 21:07:20 ?
Oscar 11 31 Oct 21:04:24 21:07:40 22° 60° (ENE) 21:10:57 145.825 FM, Beacon 2401.500 USB
STRAND 1 31 Oct 21:17:38 21:22:40 54° 292° (WNW) 21:27:40 ?
FUNcube-1 31 Oct 21:22:42 21:25:31 17° 58° (ENE) 21:28:18 145.950 - 145.970 MHz USB
HO-68 31 Oct 21:43:44 21:50:53 70° 255° (WSW) 21:58:06 435.675 MHz FM
RS-15 31 Oct 22:00:45 22:11:18 58° 118° (ESE) 22:21:53 29.354 - 29.394 USB, Beacon 29.352 USB
SO-50 31 Oct 22:01:03 22:03:02 12° 251° (WSW) 22:05:02 436.795 FM
UKube-1 31 Oct 22:04:26 22:08:48 78° 73° (ENE) 22:13:12 145.840 MHz, 145.915 MHz
ZACube-1 31 Oct 22:14:23 22:18:39 43° 68° (ENE) 22:22:50 437.345 MHz
KITSAT 1 31 Oct 22:15:15 22:21:15 24° 256° (WSW) 22:27:14 435.175 FM
Oscar 11 31 Oct 22:39:18 22:43:32 55° 260° (W) 22:47:48 145.825 FM, Beacon 2401.500 USB
UOSAT-12 31 Oct 22:40:47 22:45:03 34° 240° (WSW) 22:49:15 437.025 FM, 437.400 FM
FUNcube-1 31 Oct 22:56:52 23:01:23 80° 256° (WSW) 23:05:49 145.950 - 145.970 MHz USB
MaSat-1 31 Oct 22:58:46 23:02:20 42° 117° (ESE) 23:05:32 437.345 MHz
STRAND 1 31 Oct 22:58:58 23:00:48 12° 313° (NW) 23:02:38 ?
HO-68 31 Oct 23:35:52 23:39:58 16° 277° (W) 23:44:05 435.675 MHz FM
UKube-1 31 Oct 23:43:09 23:45:33 14° 272° (W) 23:47:58 145.840 MHz, 145.915 MHz
ZACube-1 31 Oct 23:51:24 23:55:12 26° 266° (W) 23:58:57 437.345 MHz
RS-15 01 Nov 00:12:55 00:23:43 62° 325° (NW) 00:34:42 29.354 - 29.394 USB, Beacon 29.352 USB
MaSat-1 01 Nov 00:34:55 00:37:49 23° 314° (NW) 00:40:29 437.345 MHz
FUNcube-1 01 Nov 00:37:10 00:38:29 11° 275° (W) 00:39:47 145.950 - 145.970 MHz USB
PCSat 01 Nov 01:59:25 02:02:28 15° 105° (ESE) 02:05:31 145.825 MHz
JAS-1B 01 Nov 02:04:47 02:10:42 28° 92° (E) 02:17:26 435.800 - 435.900 CW/SSB
Oscar 19 01 Nov 02:11:23 02:15:22 22° 91° (E) 02:19:20 437.125 CW, 437.150 USB
RS-15 01 Nov 02:28:16 02:38:30 42° 358° (N) 02:48:59 29.354 - 29.394 USB, Beacon 29.352 USB
AO-27 01 Nov 02:49:19 02:53:16 21° 90° (E) 02:57:11 436.795 MHz FM
Oscar 16 01 Nov 02:57:59 03:03:01 53° 100° (E) 03:08:00 437.025 USB, Beacon 2401.1428
Gurwin Techsat 1B 01 Nov 03:08:32 03:12:08 18° 88° (E) 03:15:44 435.225 FM
TMSAT-1 01 Nov 03:14:48 03:17:56 16° 86° (E) 03:21:04 436.925 FM
Sapphire 01 Nov 03:18:13 03:23:28 53° 119° (ESE) 03:28:45 437.095 MHz 1200 baud AX-25 AFSK
AO-Echo 01 Nov 03:27:40 03:32:55 55° 100° (E) 03:38:06 ?
OPAL 01 Nov 03:28:12 03:29:31 11° 44° (NE) 03:30:50 ?
Uribyol 2 01 Nov 03:32:07 03:37:09 47° 99° (E) 03:42:08 436.500 FM
PCSat 01 Nov 03:39:37 03:45:01 78° 125° (SE) 03:50:28 145.825 MHz
ITAMSAT 1 01 Nov 03:40:13 03:45:20 51° 100° (E) 03:50:24 435.822 SSB
Oscar 19 01 Nov 03:50:05 03:55:09 63° 290° (WNW) 04:00:13 437.125 CW, 437.150 USB
AO-7 01 Nov 03:53:01 03:56:05 12° 79° (E) 03:59:08 29.400 - 29.500 MHz
JAS-1B 01 Nov 03:55:00 04:01:49 77° 290° (WNW) 04:10:01 435.800 - 435.900 CW/SSB
AO-27 01 Nov 04:28:04 04:33:18 69° 290° (WNW) 04:38:28 436.795 MHz FM
Oscar 16 01 Nov 04:37:47 04:42:08 29° 300° (WNW) 04:46:28 437.025 USB, Beacon 2401.1428
RS-15 01 Nov 04:42:40 04:53:30 57° 30° (NNE) 05:04:43 29.354 - 29.394 USB, Beacon 29.352 USB
Gurwin Techsat 1B 01 Nov 04:47:25 04:52:47 81° 288° (WNW) 04:58:05 435.225 FM
TMSAT-1 01 Nov 04:53:18 04:58:39 88° 106° (ESE) 05:03:58 436.925 FM
Sapphire 01 Nov 05:02:01 05:07:06 39° 321° (NW) 05:12:13 437.095 MHz 1200 baud AX-25 AFSK
OPAL 01 Nov 05:02:28 05:07:20 48° 64° (ENE) 05:12:10 ?
AO-Echo 01 Nov 05:06:52 05:11:25 29° 300° (WNW) 05:15:57 ?
Uribyol 2 01 Nov 05:11:54 05:16:29 32° 299° (WNW) 05:21:03 436.500 FM
ITAMSAT 1 01 Nov 05:20:07 05:24:37 30° 300° (WNW) 05:29:06 435.822 SSB
Uosat F 01 Nov 05:20:08 05:24:29 28° 94° (E) 05:28:47 435.120 FM
STRAND 1 01 Nov 05:24:09 05:26:41 14° 49° (NE) 05:29:12 ?
PCSat 01 Nov 05:24:13 05:29:00 30° 327° (NNW) 05:33:48 145.825 MHz
JAS-2 01 Nov 05:30:29 05:36:12 21° 83° (E) 05:41:49 435.800 - 435.900 CW/SSB, 435.910 FM
Oscar 19 01 Nov 05:31:11 05:33:34 13° 311° (NW) 05:35:58 437.125 CW, 437.150 USB
AO-7 01 Nov 05:42:46 05:50:56 54° 102° (ESE) 05:59:03 29.400 - 29.500 MHz
JAS-1B 01 Nov 05:46:51 05:51:41 22° 309° (NW) 05:57:05 435.800 - 435.900 CW/SSB
Hamsat 01 Nov 06:02:56 06:04:21 11° 86° (E) 06:05:46 145.90 MHz
AO-27 01 Nov 06:09:06 06:11:56 15° 310° (NW) 06:14:46 436.795 MHz FM
Gurwin Techsat 1B 01 Nov 06:28:37 06:32:00 17° 308° (NW) 06:35:22 435.225 FM
TMSAT-1 01 Nov 06:34:15 06:37:56 19° 306° (NW) 06:41:36 436.925 FM
Saudisat 1A 01 Nov 06:35:28 06:39:33 39° 122° (ESE) 06:43:41 436.775 MHz
OPAL 01 Nov 06:41:59 06:46:25 30° 263° (W) 06:50:50 ?
Sapphire 01 Nov 06:48:22 06:52:02 18° 346° (NNW) 06:55:42 437.095 MHz 1200 baud AX-25 AFSK
RS-15 01 Nov 06:55:26 07:06:24 68° 238° (WSW) 07:17:48 29.354 - 29.394 USB, Beacon 29.352 USB
Uosat F 01 Nov 06:58:37 07:03:31 50° 293° (WNW) 07:08:22 435.120 FM
STRAND 1 01 Nov 06:59:52 07:04:57 64° 70° (ENE) 07:10:04 ?
MaSat-1 01 Nov 07:02:52 07:05:13 28° 48° (NE) 07:07:24 437.345 MHz
PCSat 01 Nov 07:10:46 07:14:10 16° 352° (N) 07:17:34 145.825 MHz
JAS-2 01 Nov 07:14:28 07:22:22 80° 104° (ESE) 07:30:07 435.800 - 435.900 CW/SSB, 435.910 FM
AO-7 01 Nov 07:35:50 07:43:41 48° 304° (NW) 07:51:32 29.400 - 29.500 MHz
Hamsat 01 Nov 07:36:43 07:40:57 88° 104° (ESE) 07:45:13 145.90 MHz
SO-67 01 Nov 07:52:13 07:54:44 19° 92° (E) 07:57:14 435.3500 MHz FM
Saudisat 1A 01 Nov 08:14:57 08:19:08 42° 323° (NW) 08:23:21 436.775 MHz
Sapphire 01 Nov 08:34:01 08:37:35 17° 12° (NNE) 08:41:09 437.095 MHz 1200 baud AX-25 AFSK
MaSat-1 01 Nov 08:38:51 08:40:18 14° 251° (WSW) 08:41:43 437.345 MHz
Uosat F 01 Nov 08:39:59 08:41:12 11° 314° (NW) 08:42:25 435.120 FM
STRAND 1 01 Nov 08:40:37 08:44:35 22° 269° (W) 08:48:36 ?
PCSat 01 Nov 08:55:47 08:59:41 19° 19° (NNE) 09:03:35 145.825 MHz
JAS-2 01 Nov 09:00:03 09:06:44 33° 305° (NW) 09:13:23 435.800 - 435.900 CW/SSB, 435.910 FM
HO-68 01 Nov 09:06:35 09:11:18 18° 85° (E) 09:15:58 435.675 MHz FM
RS-15 01 Nov 09:09:21 09:16:38 20° 262° (W) 09:24:07 29.354 - 29.394 USB, Beacon 29.352 USB
Hamsat 01 Nov 09:14:05 09:16:19 14° 303° (WNW) 09:18:33 145.90 MHz
SO-67 01 Nov 09:24:38 09:27:51 37° 290° (WNW) 09:31:04 435.3500 MHz FM
AO-7 01 Nov 09:29:34 09:34:36 18° 328° (NNW) 09:39:38 29.400 - 29.500 MHz
Saudisat 1A 01 Nov 09:56:46 09:59:47 18° 346° (NNW) 10:02:49 436.775 MHz
Sapphire 01 Nov 10:17:36 10:22:37 36° 37° (NE) 10:27:36 437.095 MHz 1200 baud AX-25 AFSK
Oscar 11 01 Nov 10:22:04 10:25:10 19° 90° (E) 10:28:16 145.825 FM, Beacon 2401.500 USB
PCSat 01 Nov 10:39:09 10:44:26 47° 43° (NE) 10:49:40 145.825 MHz
FUNcube-1 01 Nov 10:42:05 10:44:10 13° 87° (E) 10:46:14 145.950 - 145.970 MHz USB
SO-50 01 Nov 10:42:27 10:43:11 10° 107° (ESE) 10:43:55 436.795 FM
JAS-2 01 Nov 10:47:31 10:49:30 11° 328° (NNW) 10:51:31 435.800 - 435.900 CW/SSB, 435.910 FM
HO-68 01 Nov 10:52:57 11:00:13 78° 107° (ESE) 11:07:24 435.675 MHz FM
KITSAT 1 01 Nov 10:53:41 11:00:34 32° 109° (ESE) 11:07:28 435.175 FM
ISS 01 Nov 11:00:47 11:03:23 21° 145° (SE) 11:05:59 145.800 FM
UKube-1 01 Nov 11:23:15 11:27:38 68° 103° (ESE) 11:31:59 145.840 MHz, 145.915 MHz
ZACube-1 01 Nov 11:34:23 11:38:24 41° 98° (E) 11:42:20 437.345 MHz
Saudisat 1A 01 Nov 11:38:03 11:40:57 17° 11° (N) 11:43:50 436.775 MHz
Oscar 11 01 Nov 11:57:28 12:01:43 57° 289° (WNW) 12:05:57 145.825 FM, Beacon 2401.500 USB
Oscar 19 01 Nov 11:58:14 12:00:01 12° 48° (NE) 12:01:47 437.125 CW, 437.150 USB
Sapphire 01 Nov 12:01:00 12:06:23 61° 239° (WSW) 12:11:43 437.095 MHz 1200 baud AX-25 AFSK
FUNcube-1 01 Nov 12:16:55 12:21:09 78° 286° (WNW) 12:25:18 145.950 - 145.970 MHz USB
SO-50 01 Nov 12:18:17 12:22:46 62° 127° (SE) 12:27:24 436.795 FM
PCSat 01 Nov 12:22:46 12:27:50 41° 244° (WSW) 12:32:51 145.825 MHz
ISS 01 Nov 12:36:23 12:39:42 67° 164° (SSE) 12:43:01 145.800 FM
AO-27 01 Nov 12:37:09 12:39:05 12° 47° (NE) 12:41:01 436.795 MHz FM
HO-68 01 Nov 12:41:17 12:47:21 31° 308° (NW) 12:53:24 435.675 MHz FM
Oscar 16 01 Nov 12:42:36 12:46:40 24° 58° (ENE) 12:50:44 437.025 USB, Beacon 2401.1428
KITSAT 1 01 Nov 12:47:12 12:55:18 80° 312° (NW) 13:03:27 435.175 FM
UOSAT-12 01 Nov 12:57:25 13:00:54 21° 114° (ESE) 13:04:26 437.025 FM, 437.400 FM
JAS-1B 01 Nov 12:57:52 13:02:49 32° 58° (ENE) 13:08:00 435.800 - 435.900 CW/SSB
Gurwin Techsat 1B 01 Nov 12:59:44 13:00:51 11° 45° (NE) 13:01:58 435.225 FM
UKube-1 01 Nov 13:00:20 13:03:23 19° 302° (WNW) 13:06:26 145.840 MHz, 145.915 MHz
AO-Echo 01 Nov 13:08:51 13:12:44 22° 56° (ENE) 13:16:42 ?
AO-7 01 Nov 13:09:35 13:13:20 14° 24° (NNE) 13:17:06 29.400 - 29.500 MHz
ZACube-1 01 Nov 13:11:09 13:14:38 26° 297° (WNW) 13:18:05 437.345 MHz
Saudisat 1A 01 Nov 13:17:36 13:21:42 35° 34° (NE) 13:25:48 436.775 MHz
Uribyol 2 01 Nov 13:17:38 13:21:40 23° 57° (ENE) 13:25:43 436.500 FM
ITAMSAT 1 01 Nov 13:25:41 13:29:52 25° 58° (ENE) 13:34:05 435.822 SSB
Oscar 19 01 Nov 13:33:19 13:38:19 54° 68° (ENE) 13:43:19 437.125 CW, 437.150 USB
Sapphire 01 Nov 13:47:09 13:48:43 11° 259° (WSW) 13:50:16 437.095 MHz 1200 baud AX-25 AFSK
FUNcube-1 01 Nov 13:55:09 13:56:48 12° 306° (NW) 13:58:27 145.950 - 145.970 MHz USB
SO-50 01 Nov 13:59:28 14:03:39 33° 329° (NNW) 14:07:57 436.795 FM
AO-27 01 Nov 14:12:27 14:17:32 54° 68° (ENE) 14:22:38 436.795 MHz FM
ISS 01 Nov 14:13:02 14:16:23 89° 5° (N) 14:19:44 145.800 FM
Oscar 16 01 Nov 14:20:31 14:25:38 65° 258° (WSW) 14:30:46 437.025 USB, Beacon 2401.1428
HO-68 01 Nov 14:31:52 14:32:53 10° 332° (NNW) 14:33:53 435.675 MHz FM
Gurwin Techsat 1B 01 Nov 14:34:33 14:39:36 47° 66° (ENE) 14:44:42 435.225 FM
UOSAT-12 01 Nov 14:35:54 14:40:35 76° 314° (NW) 14:45:21 437.025 FM, 437.400 FM
TMSAT-1 01 Nov 14:40:18 14:45:14 41° 64° (ENE) 14:50:11 436.925 FM
AO-Echo 01 Nov 14:45:56 14:50:59 73° 257° (WSW) 14:56:14 ?
JAS-1B 01 Nov 14:47:54 14:53:23 49° 261° (W) 14:59:05 435.800 - 435.900 CW/SSB
